STARLINK-31902, 59666

Orbit data source: Space-Track

STARLINK-31902, 59666 is a payload satellite owned by SpaceX/Seattle (US) in LEO that was launched on Mon, 06 May 2024 UTC via an FALCON 9 launch vehicle from the Air Force Eastern Test Range (AFETR). Payload-class satellites include a variety of spacecraft equipped with specific instruments for various scientific and technological missions. These include communications satellites like Starlink; space stations such as the ISS; scientific satellites like the Hubble; Earth observation satellites from companies like Planet Labs, Umbra, and HawkEye 360; GPS; miniature CubeSats for education and research; and military/defense satellites.

Loading next visibility...
Identifier
59666, 2024-084N
Orbit
LEO
Country
Flag of USUS
Related business
Manufacturer
SpaceX/Seattle
Mission
Operational Commercial Communications
Bus & Motor
STARLINK V2M, Unknown motor
Mass
730 kg wet, ~700 kg dry
Launch date (UTC)
2024-05-06 (2 years ago)
Launch vehicle
FALCON 9
Launch site
Air Force Eastern Test Range (AFETR)
Object type
Payload
Rocket body
Debris
Shape & HBR
Box + 2 Pan, 17.7 m
Radar Cross Section
33.884 m², Large (>1 m²)

Expand to show TLE details & history
Last TLE update: 22 hours ago

TLE from 22 hours ago
0 STARLINK-31902
1 59666U 24084N   26072.89690515  .00001083  00000-0  48878-4 0  9991
2 59666  43.0022  18.2929 0000673 291.9397  68.1383 15.27573757105017
Epoch: 2026-03-13T21:31Z
TLE epoch observation values (Epoch: 2026-03-13T21:31:32.604Z)
Latitude
-0.00004°
Longitude
-116.11885°
Altitude
482.672 km
Speed
7.626 km/s
True Right ascension
01h 13m 10s
True Declination
0° 00' 00"
Sunlit
Object was in daylight at epoch
Visualization orbit readout
Latitude
Unknown
Longitude
Unknown
Altitude
Unknown
Speed
Unknown
Apparent Right ascension
Unknown
Apparent Declination
Unknown
Sunlit
N/A
Visualization observer readout
Local Sidereal Time
00:05:04
Azimuth
Unknown
Elevation
Unknown
Doppler factor
Unknown
Orbital elements
Apogee altitude
485.474 km
Perigee altitude
484.551 km
Semi-major axis
6,863.15 km
Eccentricity
0.00007
Inclination
43.0022°
RAAN
18.2929°
Arg. of periapsis
291.9397°
True anomaly
68.14546°
Mean anomaly
68.1383°
Eccentric anomaly
68.14188°
Mean motion
3.81731 °/min
Orbital period
94.31 mins
BSTAR
0.000048878
Loading maneuver chart data...
Computing Atmospheric mass density...
Loading historical data...
Loading historical data...
Loading historical data...
Loading historical data...
Loading historical data...
Loading historical data...
Loading historical data...

Documentation

Showing up to 5 results
|